This is the latest recevied weather packets stored in our database for station/object WS2Z. If no packets are shown the sender has not sent any weather packets the latest 10 day(s).
| Time | Temp. | Humidity | Pressure | Rain* | Wind** | Luminosity | Snow |
|---|---|---|---|---|---|---|---|
| 1777509181 | 25.56° C | 77% | 1013.1 hPa | 0 mm | - | 0 W/m² | - |
| 1777508878 | 25.56° C | 77% | 1013.1 hPa | 0 mm | - | 0 W/m² | - |
| 1777508574 | 25.56° C | 76% | 1013.2 hPa | 0 mm | - | 0 W/m² | - |
| 1777508271 | 25.56° C | 75% | 1013 hPa | 0 mm | - | 0 W/m² | - |
| 1777507969 | 25.56° C | 75% | 1012.8 hPa | 0 mm | - | 0 W/m² | - |
| 1777507665 | 25.56° C | 74% | 1012.8 hPa | 0 mm | - | 1 W/m² | - |
| 1777507362 | 25.56° C | 73% | 1012.9 hPa | 0 mm | - | 2 W/m² | - |
| 1777507060 | 25.56° C | 72% | 1012.8 hPa | 0 mm | - | 3 W/m² | - |
| 1777506757 | 26.11° C | 73% | 1012.9 hPa | 0 mm | - | 5 W/m² | - |
| 1777506453 | 26.11° C | 72% | 1013 hPa | 0 mm | - | 8 W/m² | - |
| 1777506149 | 26.11° C | 70% | 1012.8 hPa | 0 mm | - | 12 W/m² | - |
| 1777505845 | 26.67° C | 69% | 1013 hPa | 0 mm | - | 16 W/m² | - |
| 1777505542 | 26.67° C | 69% | 1013 hPa | 0 mm | - | 21 W/m² | - |
| 1777505238 | 27.22° C | 66% | 1012.9 hPa | 0 mm | - | 26 W/m² | - |
| 1777504935 | 27.22° C | 65% | 1012.9 hPa | 0 mm | - | 32 W/m² | - |
| 1777504632 | 27.78° C | 65% | 1012.9 hPa | 0 mm | - | 39 W/m² | - |
| 1777504329 | 27.22° C | 66% | 1012.8 hPa | 0 mm | - | 46 W/m² | - |
| 1777504023 | 27.22° C | 64% | 1012.7 hPa | 0 mm | - | 55 W/m² | - |
| 1777503721 | 27.78° C | 64% | 1012.9 hPa | 0 mm | - | 65 W/m² | - |
| 1777503417 | 27.78° C | 63% | 1013 hPa | 0 mm | - | 75 W/m² | - |
| 1777503113 | 27.78° C | 61% | 1012.7 hPa | 0 mm | - | 85 W/m² | - |
| 1777502811 | 27.78° C | 64% | 1012.7 hPa | 0 mm | - | 96 W/m² | - |
| 1777502508 | 27.78° C | 64% | 1012.6 hPa | 0 mm | - | 109 W/m² | - |
| 1777502205 | 27.78° C | 62% | 1012.9 hPa | 0 mm | - | 121 W/m² | - |
| 1777501902 | 27.78° C | 61% | 1012.9 hPa | 0 mm | - | 135 W/m² | - |
* Rain latest hour (hover to see other rain measurements)
** Current wind speed in m/s (hover to see current wind gust speed)